KLM428 OMDB-EHAM

Flight info

Callsign KLM428
Flight time N/A
Altitude 34000
Route ALD DCT PMA/N0495F360 DCT RSI DCT TBA DCT ARH DCT PHA/N0484F380 DCT AYT DCT USK DCT BDM DCT EKI DCT PDV DCT SOF DCT NII DCT VAL/N0486F400 DCT VIW DCT ALD DCT FHH DCT SPI DCT BUN DCT FRT DCT SPL
Aircraft B742/H-SDIWY/L

Departure

Time 2026-05-08 07:31
Airport Dubai International Airport (OMDB)

Arrival

Time N/A
Airport Amsterdam Airport Schiphol (EHAM)
Time Latitude Longitude Altitude Speed Heading
2026-05-08 06:01 25.24916 55.36218 29 ft 0 kts 211°
2026-05-08 07:04 25.24920 55.36221 29 ft 2 kts 211°
2026-05-08 07:04 25.24933 55.36230 29 ft 2 kts 211°
2026-05-08 07:04 25.24945 55.36238 29 ft 2 kts 211°
2026-05-08 07:05 25.24958 55.36247 29 ft 1 kts 211°
2026-05-08 07:05 25.24966 55.36252 29 ft 2 kts 206°
2026-05-08 07:05 25.24980 55.36257 29 ft 2 kts 185°
2026-05-08 07:05 25.24995 55.36256 29 ft 2 kts 168°
2026-05-08 07:06 25.25009 55.36250 29 ft 2 kts 151°
2026-05-08 07:06 25.25021 55.36241 30 ft 2 kts 134°
2026-05-08 07:06 25.25028 55.36231 31 ft 1 kts 121°
2026-05-08 07:06 25.25028 55.36230 31 ft 0 kts 121°
2026-05-08 07:15 25.25027 55.36231 31 ft 1 kts 121°
2026-05-08 07:15 25.25028 55.36263 31 ft 5 kts 59°
2026-05-08 07:15 25.25071 55.36288 33 ft 8 kts 358°
2026-05-08 07:15 25.25124 55.36242 37 ft 14 kts 302°
2026-05-08 07:16 25.25176 55.36148 40 ft 13 kts 302°
2026-05-08 07:16 25.25230 55.36053 37 ft 18 kts 301°
2026-05-08 07:16 25.25310 55.35911 37 ft 22 kts 299°
2026-05-08 07:16 25.25385 55.35772 37 ft 20 kts 302°
2026-05-08 07:17 25.25467 55.35629 33 ft 23 kts 301°
2026-05-08 07:17 25.25557 55.35461 31 ft 25 kts 301°
2026-05-08 07:17 25.25642 55.35309 33 ft 21 kts 301°
2026-05-08 07:17 25.25698 55.35211 32 ft 12 kts 313°
2026-05-08 07:18 25.25772 55.35222 32 ft 13 kts 31°
2026-05-08 07:18 25.25849 55.35274 31 ft 12 kts 31°
2026-05-08 07:18 25.25921 55.35322 31 ft 13 kts 32°
2026-05-08 07:18 25.25990 55.35423 32 ft 17 kts 75°
2026-05-08 07:19 25.25980 55.35544 34 ft 14 kts 113°
2026-05-08 07:19 25.25930 55.35637 34 ft 15 kts 122°
2026-05-08 07:19 25.25860 55.35763 36 ft 22 kts 120°
2026-05-08 07:19 25.25779 55.35910 37 ft 21 kts 121°
2026-05-08 07:20 25.25704 55.36042 38 ft 18 kts 121°
2026-05-08 07:20 25.25630 55.36177 41 ft 23 kts 121°
2026-05-08 07:20 25.25538 55.36345 41 ft 26 kts 122°
2026-05-08 07:20 25.25445 55.36508 42 ft 23 kts 122°
2026-05-08 07:21 25.25367 55.36652 44 ft 20 kts 121°
2026-05-08 07:21 25.25299 55.36775 45 ft 17 kts 121°
2026-05-08 07:21 25.25232 55.36894 46 ft 17 kts 122°
2026-05-08 07:21 25.25163 55.37015 47 ft 21 kts 122°
2026-05-08 07:22 25.25076 55.37173 47 ft 26 kts 121°
2026-05-08 07:22 25.24986 55.37340 47 ft 24 kts 120°
2026-05-08 07:22 25.24907 55.37486 49 ft 20 kts 122°
2026-05-08 07:22 25.24824 55.37633 49 ft 25 kts 121°
2026-05-08 07:23 25.24732 55.37795 51 ft 16 kts 121°
2026-05-08 07:23 25.24678 55.37894 52 ft 17 kts 120°
2026-05-08 07:23 25.24626 55.37991 53 ft 9 kts 111°
2026-05-08 07:23 25.24636 55.38043 53 ft 6 kts 43°
2026-05-08 07:24 25.24644 55.38050 53 ft 0 kts 30°
2026-05-08 07:27 25.24645 55.38050 53 ft 0 kts 30°
2026-05-08 07:27 25.24672 55.38067 53 ft 8 kts 30°
2026-05-08 07:28 25.24726 55.38100 53 ft 8 kts 20°
2026-05-08 07:28 25.24783 55.38075 53 ft 11 kts 299°
2026-05-08 07:28 25.24784 55.38072 53 ft 0 kts 299°
2026-05-08 07:29 25.24786 55.38068 53 ft 3 kts 299°
2026-05-08 07:29 25.24862 55.37927 51 ft 46 kts 301°
2026-05-08 07:29 25.25119 55.37461 48 ft 94 kts 301°
2026-05-08 07:30 25.25544 55.36697 44 ft 138 kts 301°
2026-05-08 07:30 25.26121 55.35668 50 ft 173 kts 301°
2026-05-08 07:30 25.26773 55.34494 232 ft 184 kts 300°
2026-05-08 07:30 25.27451 55.33249 502 ft 193 kts 301°
2026-05-08 07:31 25.28150 55.32016 1062 ft 186 kts 300°
2026-05-08 07:31 25.28825 55.30849 1595 ft 179 kts 301°
2026-05-08 07:31 25.29505 55.29693 1967 ft 180 kts 301°
2026-05-08 07:31 25.30184 55.28530 2332 ft 181 kts 301°
2026-05-08 07:32 25.30820 55.27335 2667 ft 182 kts 284°
2026-05-08 07:32 25.30755 55.25969 2950 ft 184 kts 249°
2026-05-08 07:32 25.30210 55.24658 3200 ft 192 kts 245°
2026-05-08 07:32 25.29587 55.23312 3452 ft 201 kts 245°
2026-05-08 07:33 25.28929 55.21901 3687 ft 212 kts 245°
2026-05-08 07:33 25.28235 55.20416 3940 ft 223 kts 245°
2026-05-08 07:33 25.27507 55.18849 4185 ft 236 kts 245°
2026-05-08 07:33 25.26741 55.17188 4437 ft 251 kts 245°
2026-05-08 07:34 25.25927 55.15415 4683 ft 267 kts 245°
2026-05-08 07:34 25.25263 55.13455 5006 ft 280 kts 258°
2026-05-08 07:34 25.24853 55.11292 5252 ft 297 kts 261°
2026-05-08 07:34 25.24464 55.08978 5493 ft 316 kts 261°
2026-05-08 07:35 25.24094 55.06515 5746 ft 335 kts 264°
2026-05-08 07:35 25.23875 55.03888 6043 ft 354 kts 267°
2026-05-08 07:35 25.23691 55.01107 6289 ft 374 kts 267°
2026-05-08 07:35 25.23833 54.98191 6567 ft 391 kts 282°
2026-05-08 07:36 25.24695 54.95285 6830 ft 409 kts 296°
2026-05-08 07:36 25.26056 54.92446 7083 ft 427 kts 295°
2026-05-08 07:36 25.26983 54.89268 7325 ft 442 kts 282°
2026-05-08 07:36 25.27213 54.85990 7584 ft 416 kts 268°
2026-05-08 07:37 25.27043 54.82913 7841 ft 388 kts 267°
2026-05-08 07:37 25.26894 54.80043 8093 ft 362 kts 267°
2026-05-08 07:37 25.26757 54.77368 8357 ft 336 kts 267°
2026-05-08 07:37 25.26635 54.74907 8695 ft 308 kts 267°
2026-05-08 07:38 25.26531 54.72634 9035 ft 290 kts 267°
2026-05-08 07:38 25.26437 54.70405 9383 ft 292 kts 267°
2026-05-08 07:38 25.26347 54.68145 9729 ft 296 kts 267°
2026-05-08 07:38 25.26264 54.65865 10078 ft 299 kts 267°
2026-05-08 07:39 25.26192 54.63566 10429 ft 302 kts 267°
2026-05-08 07:39 25.26132 54.61241 10783 ft 308 kts 267°
2026-05-08 07:39 25.26081 54.58846 11135 ft 318 kts 267°
2026-05-08 07:39 25.26037 54.56371 11485 ft 328 kts 267°
2026-05-08 07:40 25.25998 54.53810 11837 ft 339 kts 267°
2026-05-08 07:40 25.25964 54.51168 12189 ft 350 kts 267°
2026-05-08 07:40 25.25939 54.48436 12542 ft 362 kts 267°
2026-05-08 07:40 25.25919 54.45607 12896 ft 374 kts 267°
2026-05-08 07:41 25.25902 54.42698 13253 ft 384 kts 267°
2026-05-08 07:41 25.25889 54.39731 13598 ft 387 kts 267°
2026-05-08 07:41 25.25879 54.36763 13949 ft 385 kts 268°
2026-05-08 07:41 25.25866 54.33806 14298 ft 385 kts 267°
2026-05-08 07:42 25.25850 54.30835 14642 ft 387 kts 267°
2026-05-08 07:42 25.25833 54.27856 14994 ft 389 kts 267°
2026-05-08 07:42 25.25814 54.24866 15344 ft 391 kts 267°
2026-05-08 07:42 25.25792 54.21868 15693 ft 392 kts 267°
2026-05-08 07:43 25.25770 54.18853 16038 ft 394 kts 267°
2026-05-08 07:43 25.25744 54.15832 16388 ft 396 kts 267°
2026-05-08 07:43 25.25716 54.12796 16738 ft 397 kts 267°
2026-05-08 07:43 25.25689 54.09753 17082 ft 397 kts 267°
2026-05-08 07:44 25.25664 54.06700 17425 ft 399 kts 267°
2026-05-08 07:44 25.25642 54.03629 17780 ft 401 kts 267°
2026-05-08 07:44 25.25621 54.00556 18126 ft 401 kts 267°
2026-05-08 07:44 25.25600 53.97473 18474 ft 403 kts 267°
2026-05-08 07:45 25.25580 53.94371 18823 ft 405 kts 267°
2026-05-08 07:45 25.25559 53.91267 19170 ft 406 kts 267°
2026-05-08 07:45 25.25538 53.88148 19514 ft 407 kts 267°
2026-05-08 07:45 25.25519 53.85030 19865 ft 408 kts 267°
2026-05-08 07:46 25.25500 53.81899 20213 ft 409 kts 267°
2026-05-08 07:46 25.25480 53.78761 20560 ft 410 kts 267°
2026-05-08 07:46 25.25458 53.75606 20906 ft 411 kts 267°
2026-05-08 07:46 25.25435 53.72455 21250 ft 412 kts 268°
2026-05-08 07:47 25.25407 53.69283 21599 ft 413 kts 267°
2026-05-08 07:47 25.25376 53.66107 21946 ft 415 kts 268°
2026-05-08 07:47 25.25345 53.62921 22292 ft 416 kts 268°
2026-05-08 07:47 25.25313 53.59720 22645 ft 417 kts 267°
2026-05-08 07:48 25.25281 53.56514 23000 ft 419 kts 268°
2026-05-08 07:48 25.25249 53.53261 23361 ft 421 kts 268°
2026-05-08 07:48 25.25218 53.50001 23722 ft 423 kts 268°
2026-05-08 07:48 25.25190 53.46727 24087 ft 424 kts 267°
2026-05-08 07:49 25.25168 53.43468 24441 ft 425 kts 268°
2026-05-08 07:49 25.25149 53.40214 24799 ft 425 kts 268°
2026-05-08 07:49 25.25131 53.36949 25160 ft 425 kts 268°
2026-05-08 07:49 25.25114 53.33672 25521 ft 425 kts 267°
2026-05-08 07:50 25.25100 53.30411 25880 ft 424 kts 267°
2026-05-08 07:50 25.25087 53.27160 26237 ft 423 kts 267°
2026-05-08 07:50 25.25075 53.23917 26600 ft 421 kts 267°
2026-05-08 07:50 25.25063 53.20687 26957 ft 419 kts 267°
2026-05-08 07:51 25.25053 53.17471 27319 ft 416 kts 267°
2026-05-08 07:51 25.25045 53.14271 27644 ft 414 kts 267°
2026-05-08 07:51 25.25038 53.11082 27776 ft 417 kts 267°
2026-05-08 07:51 25.25031 53.07855 27810 ft 422 kts 267°
2026-05-08 07:52 25.25025 53.04590 27816 ft 428 kts 267°
2026-05-08 07:52 25.25017 53.01269 27819 ft 434 kts 267°
2026-05-08 07:52 25.25006 52.97898 27818 ft 441 kts 267°
2026-05-08 07:52 25.24996 52.94489 27821 ft 446 kts 267°
2026-05-08 07:53 25.24989 52.91055 27818 ft 449 kts 267°
2026-05-08 07:53 25.24984 52.87603 27816 ft 448 kts 267°
2026-05-08 07:53 25.24985 52.84158 27819 ft 445 kts 267°
2026-05-08 07:53 25.24990 52.80749 27818 ft 444 kts 267°
2026-05-08 07:54 25.24997 52.77343 27821 ft 444 kts 267°
2026-05-08 07:54 25.25004 52.73924 27821 ft 445 kts 268°
2026-05-08 07:54 25.25010 52.70486 27821 ft 446 kts 268°
2026-05-08 07:54 25.25017 52.67060 27826 ft 447 kts 268°
2026-05-08 07:55 25.25024 52.63634 27823 ft 445 kts 268°
2026-05-08 07:55 25.25032 52.60215 27825 ft 444 kts 268°
2026-05-08 07:55 25.25041 52.56796 27825 ft 444 kts 268°
2026-05-08 07:55 25.25050 52.53378 27824 ft 444 kts 268°
2026-05-08 07:56 25.25060 52.49974 27824 ft 444 kts 268°
2026-05-08 07:56 25.25071 52.46575 27824 ft 443 kts 268°
2026-05-08 07:56 25.25085 52.43180 27828 ft 443 kts 268°
2026-05-08 07:56 25.25104 52.39777 27827 ft 444 kts 268°
2026-05-08 07:57 25.25127 52.36370 27834 ft 444 kts 268°
2026-05-08 07:57 25.25154 52.32936 27833 ft 445 kts 267°
2026-05-08 07:57 25.25182 52.29523 27830 ft 444 kts 267°
2026-05-08 07:57 25.25211 52.26109 27830 ft 444 kts 267°
2026-05-08 07:58 25.25243 52.22704 27834 ft 444 kts 267°
2026-05-08 07:58 25.25278 52.19298 27836 ft 444 kts 267°
2026-05-08 07:58 25.25316 52.15892 27832 ft 443 kts 267°
2026-05-08 07:58 25.25175 52.12513 27834 ft 437 kts 258°
2026-05-08 07:59 25.24584 52.09230 27837 ft 436 kts 254°
2026-05-08 07:59 25.23846 52.05985 27834 ft 437 kts 253°
2026-05-08 07:59 25.23065 52.02748 27838 ft 437 kts 252°
2026-05-08 07:59 25.22275 51.99513 27831 ft 436 kts 252°
2026-05-08 08:00 25.21487 51.96296 27827 ft 435 kts 252°
2026-05-08 08:00 25.20696 51.93077 27828 ft 436 kts 252°
2026-05-08 08:00 25.19905 51.89856 27831 ft 436 kts 252°
2026-05-08 08:00 25.19115 51.86629 27835 ft 437 kts 252°
2026-05-08 08:01 25.18325 51.83396 27836 ft 437 kts 252°
2026-05-08 08:01 25.17536 51.80153 27834 ft 437 kts 252°
2026-05-08 08:01 25.16750 51.76920 27841 ft 437 kts 252°
2026-05-08 08:01 25.15964 51.73676 27848 ft 437 kts 252°
2026-05-08 08:02 25.15183 51.70435 27849 ft 436 kts 252°
2026-05-08 08:02 25.14404 51.67197 27853 ft 436 kts 252°
2026-05-08 08:02 25.13631 51.63972 27852 ft 435 kts 252°
2026-05-08 08:02 25.12855 51.60745 27853 ft 436 kts 252°
2026-05-08 08:03 25.12080 51.57506 27856 ft 436 kts 254°
2026-05-08 08:03 25.11660 51.54193 27859 ft 440 kts 264°
2026-05-08 08:03 25.11582 51.50820 27857 ft 442 kts 266°
2026-05-08 08:03 25.11599 51.47436 27853 ft 442 kts 268°
2026-05-08 08:04 25.11640 51.44046 27855 ft 441 kts 268°
2026-05-08 08:04 25.11686 51.40659 27856 ft 441 kts 268°
2026-05-08 08:04 25.11736 51.37278 27858 ft 441 kts 268°
2026-05-08 08:04 25.11791 51.33892 27857 ft 440 kts 267°
2026-05-08 08:05 25.11848 51.30506 27858 ft 440 kts 267°
2026-05-08 08:05 25.11905 51.27125 27859 ft 440 kts 267°
2026-05-08 08:05 25.11964 51.23758 27860 ft 440 kts 267°
2026-05-08 08:05 25.12027 51.20371 27863 ft 440 kts 267°
2026-05-08 08:06 25.12094 51.17010 27863 ft 439 kts 267°
2026-05-08 08:06 25.12164 51.13636 27861 ft 439 kts 267°
2026-05-08 08:06 25.12234 51.10277 27860 ft 438 kts 267°
2026-05-08 08:06 25.12307 51.06909 27857 ft 439 kts 267°
2026-05-08 08:07 25.12383 51.03550 27854 ft 438 kts 268°
2026-05-08 08:07 25.12457 51.00191 27855 ft 438 kts 268°
2026-05-08 08:07 25.12531 50.96836 27853 ft 439 kts 268°
2026-05-08 08:07 25.12605 50.93475 27851 ft 439 kts 268°
2026-05-08 08:08 25.12679 50.90114 27848 ft 439 kts 268°
2026-05-08 08:08 25.12753 50.86754 27850 ft 439 kts 268°
2026-05-08 08:08 25.12827 50.83393 27848 ft 439 kts 268°
2026-05-08 08:08 25.12903 50.80033 27848 ft 439 kts 268°
2026-05-08 08:09 25.12978 50.76674 27850 ft 438 kts 268°
2026-05-08 08:09 25.13052 50.73328 27850 ft 438 kts 268°
2026-05-08 08:09 25.13126 50.69982 27852 ft 437 kts 268°
2026-05-08 08:09 25.13203 50.66633 27852 ft 437 kts 268°
2026-05-08 08:10 25.13279 50.63289 27853 ft 438 kts 268°
2026-05-08 08:10 25.13357 50.59939 27858 ft 438 kts 268°
2026-05-08 08:10 25.13438 50.56587 27859 ft 437 kts 268°
2026-05-08 08:10 25.13521 50.53241 27863 ft 437 kts 268°
2026-05-08 08:11 25.13606 50.49904 27867 ft 436 kts 268°
2026-05-08 08:11 25.13693 50.46564 27871 ft 436 kts 268°
2026-05-08 08:11 25.13781 50.43227 27872 ft 437 kts 268°
2026-05-08 08:11 25.13868 50.39872 27875 ft 438 kts 268°
2026-05-08 08:12 25.13951 50.36503 27877 ft 439 kts 268°
2026-05-08 08:12 25.14035 50.33148 27881 ft 438 kts 268°
2026-05-08 08:12 25.14119 50.29795 27883 ft 437 kts 268°
2026-05-08 08:12 25.14203 50.26454 27882 ft 436 kts 268°
2026-05-08 08:13 25.14288 50.23100 27883 ft 437 kts 267°
2026-05-08 08:13 25.14373 50.19743 27886 ft 437 kts 268°
2026-05-08 08:13 25.14459 50.16376 27885 ft 437 kts 267°
2026-05-08 08:13 25.14549 50.13022 27888 ft 436 kts 268°
2026-05-08 08:14 25.14642 50.09682 27890 ft 435 kts 268°
2026-05-08 08:14 25.14740 50.06330 27892 ft 435 kts 268°
2026-05-08 08:14 25.14841 50.02977 27894 ft 435 kts 268°
2026-05-08 08:14 25.14944 49.99628 27895 ft 436 kts 268°
2026-05-08 08:15 25.15049 49.96275 27895 ft 436 kts 268°
2026-05-08 08:15 25.15151 49.92936 27899 ft 436 kts 268°
2026-05-08 08:15 25.15256 49.89585 27897 ft 435 kts 268°
2026-05-08 08:15 25.15364 49.86238 27896 ft 436 kts 268°
2026-05-08 08:16 25.15472 49.82884 27900 ft 436 kts 268°
2026-05-08 08:16 25.15581 49.79530 27901 ft 435 kts 268°
2026-05-08 08:16 25.15688 49.76205 27931 ft 434 kts 268°
2026-05-08 08:16 25.15795 49.72873 28160 ft 431 kts 268°
2026-05-08 08:17 25.15900 49.69566 28408 ft 431 kts 268°
2026-05-08 08:17 25.16010 49.66250 28654 ft 431 kts 268°
2026-05-08 08:17 25.16128 49.62957 28903 ft 430 kts 268°
2026-05-08 08:17 25.16256 49.59661 29160 ft 429 kts 268°
2026-05-08 08:18 25.16390 49.56381 29415 ft 427 kts 268°
2026-05-08 08:18 25.16526 49.53109 29670 ft 426 kts 268°
2026-05-08 08:18 25.16665 49.49849 29926 ft 424 kts 268°
2026-05-08 08:18 25.16808 49.46615 30183 ft 421 kts 268°
2026-05-08 08:19 25.16956 49.43394 30437 ft 419 kts 268°
2026-05-08 08:19 25.17107 49.40193 30695 ft 416 kts 268°
2026-05-08 08:19 25.17263 49.37012 30952 ft 413 kts 268°
2026-05-08 08:19 25.17423 49.33853 31208 ft 409 kts 268°
2026-05-08 08:20 25.17583 49.30724 31464 ft 406 kts 268°
2026-05-08 08:20 25.17746 49.27622 31720 ft 402 kts 268°
2026-05-08 08:20 25.17915 49.24549 31893 ft 400 kts 268°
2026-05-08 08:21 25.18260 49.18384 31953 ft 403 kts 268°
2026-05-08 08:21 25.18608 49.12138 31961 ft 408 kts 268°
2026-05-08 08:22 25.18968 49.05828 31964 ft 413 kts 268°
2026-05-08 08:22 25.19220 48.99476 31967 ft 412 kts 262°
2026-05-08 08:23 25.18652 48.93178 31968 ft 414 kts 258°
2026-05-08 08:23 25.17910 48.86820 31974 ft 419 kts 258°
2026-05-08 08:24 25.17151 48.80415 31980 ft 423 kts 258°
2026-05-08 08:24 25.16381 48.73940 31982 ft 428 kts 258°
2026-05-08 08:25 25.15598 48.67372 31985 ft 433 kts 258°
2026-05-08 08:25 25.14807 48.60736 31981 ft 439 kts 258°
2026-05-08 08:26 25.14000 48.54018 31978 ft 444 kts 258°
2026-05-08 08:26 25.13179 48.47229 31979 ft 448 kts 258°
2026-05-08 08:27 25.12475 48.40383 31983 ft 450 kts 262°
2026-05-08 08:27 25.12185 48.33479 31989 ft 450 kts 262°
2026-05-08 08:28 25.11970 48.26578 31991 ft 450 kts 263°
2026-05-08 08:28 25.11772 48.19687 31991 ft 450 kts 263°
2026-05-08 08:29 25.11577 48.12769 32002 ft 451 kts 263°
2026-05-08 08:29 25.11389 48.05883 32002 ft 449 kts 263°
2026-05-08 08:30 25.11207 47.99016 32006 ft 448 kts 263°
2026-05-08 08:30 25.10949 47.88716 32011 ft 448 kts 263°
2026-05-08 08:31 25.10778 47.81853 32014 ft 448 kts 263°
2026-05-08 08:31 25.10607 47.74930 32020 ft 449 kts 263°
2026-05-08 08:32 25.10430 47.68030 32020 ft 450 kts 263°
2026-05-08 08:32 25.10261 47.61129 32026 ft 449 kts 263°
2026-05-08 08:33 25.10112 47.54249 32034 ft 449 kts 263°
2026-05-08 08:33 25.09973 47.47379 32034 ft 449 kts 263°
2026-05-08 08:34 25.09827 47.40508 32040 ft 449 kts 263°
2026-05-08 08:34 25.09681 47.33621 32051 ft 448 kts 263°
2026-05-08 08:35 25.09541 47.26745 32051 ft 449 kts 263°
2026-05-08 08:35 25.09405 47.19860 32049 ft 447 kts 263°
2026-05-08 08:36 25.09277 47.12989 32051 ft 448 kts 263°
2026-05-08 08:36 25.09155 47.06107 32064 ft 448 kts 263°
2026-05-08 08:37 25.09041 46.99228 32075 ft 449 kts 263°
2026-05-08 08:37 25.08942 46.92346 32075 ft 448 kts 263°
2026-05-08 08:38 25.08853 46.85465 32078 ft 448 kts 263°
2026-05-08 08:38 25.08764 46.78604 32081 ft 447 kts 263°
2026-05-08 08:39 25.08698 46.71753 32077 ft 446 kts 263°
2026-05-08 08:39 25.08636 46.64906 32078 ft 446 kts 263°
2026-05-08 08:40 25.08581 46.58055 32082 ft 446 kts 263°
2026-05-08 08:40 25.08523 46.51205 32085 ft 446 kts 263°
2026-05-08 08:41 25.08463 46.44340 32088 ft 447 kts 263°
2026-05-08 08:41 25.08411 46.37497 32096 ft 446 kts 263°
2026-05-08 08:42 25.08374 46.30641 32106 ft 447 kts 263°
2026-05-08 08:42 25.08344 46.23809 32110 ft 445 kts 263°
2026-05-08 08:43 25.08316 46.16963 32108 ft 446 kts 263°
2026-05-08 08:43 25.08288 46.10156 32165 ft 443 kts 263°
2026-05-08 08:44 25.08285 46.06783 32422 ft 437 kts 263°
2026-05-08 08:44 25.08288 46.03475 32678 ft 426 kts 263°
2026-05-08 08:44 25.08301 46.00251 32931 ft 419 kts 263°
2026-05-08 08:44 25.08321 45.97039 33200 ft 415 kts 263°
2026-05-08 08:45 25.08350 45.93883 33469 ft 411 kts 263°
2026-05-08 08:45 25.08386 45.90757 33730 ft 406 kts 263°
2026-05-08 08:45 25.08432 45.87669 34002 ft 401 kts 263°
2026-05-08 08:45 25.08486 45.84621 34273 ft 396 kts 263°
2026-05-08 08:46 25.08549 45.81616 34551 ft 390 kts 263°
2026-05-08 08:46 25.08614 45.78653 34819 ft 383 kts 263°
2026-05-08 08:46 25.08690 45.75737 35030 ft 379 kts 263°
2026-05-08 08:46 25.08779 45.72832 35077 ft 377 kts 263°
2026-05-08 08:47 25.08961 45.67045 35082 ft 376 kts 263°
2026-05-08 08:47 25.09161 45.61265 35086 ft 374 kts 263°
2026-05-08 08:48 25.09364 45.55533 35086 ft 372 kts 263°
2026-05-08 08:48 25.09566 45.49828 35082 ft 370 kts 263°
2026-05-08 08:49 25.09785 45.44153 35082 ft 368 kts 263°
2026-05-08 08:49 25.10008 45.38493 35085 ft 366 kts 263°
2026-05-08 08:50 25.10243 45.32885 35090 ft 364 kts 263°
2026-05-08 08:50 25.10469 45.27308 35087 ft 362 kts 263°
2026-05-08 08:51 25.10691 45.21747 35086 ft 361 kts 263°
2026-05-08 08:51 25.10936 45.16219 35089 ft 359 kts 263°
2026-05-08 08:52 25.11193 45.10737 35090 ft 356 kts 263°
2026-05-08 08:52 25.11442 45.05282 35092 ft 354 kts 263°
2026-05-08 08:53 25.11703 44.99851 35090 ft 352 kts 263°
2026-05-08 08:53 25.11979 44.94467 35099 ft 349 kts 263°
2026-05-08 08:54 25.12265 44.89131 35095 ft 346 kts 263°
2026-05-08 08:54 25.12561 44.83832 35092 ft 343 kts 263°
2026-05-08 08:55 25.12865 44.78595 35094 ft 340 kts 263°
2026-05-08 08:55 25.13178 44.73417 35081 ft 336 kts 263°
2026-05-08 08:56 25.13512 44.68304 35086 ft 332 kts 263°
2026-05-08 08:56 25.13847 44.63278 35088 ft 327 kts 263°
2026-05-08 08:57 25.14189 44.58334 35087 ft 321 kts 263°
2026-05-08 08:57 25.14544 44.53460 35096 ft 319 kts 263°
2026-05-08 08:58 25.14900 44.48620 34998 ft 314 kts 263°
2026-05-08 08:58 25.15082 44.46210 34877 ft 314 kts 263°
2026-05-08 08:58 25.15270 44.43805 34757 ft 314 kts 263°
2026-05-08 08:59 25.15453 44.41379 34470 ft 319 kts 263°
2026-05-08 08:59 25.15631 44.38918 34189 ft 323 kts 263°
2026-05-08 08:59 25.15803 44.36421 33916 ft 328 kts 264°
2026-05-08 08:59 25.15962 44.33891 33646 ft 334 kts 263°
2026-05-08 09:00 25.16119 44.31314 33375 ft 341 kts 263°
2026-05-08 09:00 25.16271 44.28673 33006 ft 351 kts 263°
2026-05-08 09:00 25.16408 44.25956 32662 ft 362 kts 263°
2026-05-08 09:00 25.16528 44.23144 32327 ft 372 kts 263°
2026-05-08 09:01 25.16628 44.20263 32166 ft 378 kts 263°
2026-05-08 09:01 25.16710 44.17354 32123 ft 382 kts 263°
2026-05-08 09:01 25.16850 44.11463 32114 ft 388 kts 263°
2026-05-08 09:02 25.16977 44.05475 32105 ft 394 kts 263°
2026-05-08 09:02 25.16945 43.99425 32108 ft 390 kts 254°
2026-05-08 09:03 25.15730 43.93591 32111 ft 390 kts 249°
2026-05-08 09:03 25.14250 43.87783 32105 ft 396 kts 248°
2026-05-08 09:04 25.12702 43.81902 32115 ft 401 kts 248°
2026-05-08 09:04 25.11140 43.76009 32113 ft 400 kts 248°
2026-05-08 09:05 25.09821 43.70063 32119 ft 399 kts 253°
2026-05-08 09:05 25.08781 43.64037 32119 ft 402 kts 253°
2026-05-08 09:06 25.07756 43.57965 32122 ft 403 kts 253°
2026-05-08 09:06 25.06726 43.51888 32120 ft 402 kts 253°
2026-05-08 09:07 25.05683 43.45834 32122 ft 403 kts 253°
2026-05-08 09:07 25.04637 43.39788 32108 ft 402 kts 253°
2026-05-08 09:08 25.03581 43.33743 32103 ft 403 kts 253°
2026-05-08 09:08 25.02494 43.27682 32102 ft 403 kts 253°
2026-05-08 09:09 25.01408 43.21624 32100 ft 405 kts 253°
2026-05-08 09:09 25.00346 43.15549 32096 ft 405 kts 255°
2026-05-08 09:10 24.99409 43.09440 32097 ft 404 kts 255°
2026-05-08 09:10 24.98525 43.03344 32263 ft 401 kts 255°
2026-05-08 09:11 24.98103 43.00335 32505 ft 397 kts 255°
2026-05-08 09:11 24.97690 42.97336 32718 ft 394 kts 255°
2026-05-08 09:11 24.97286 42.94360 32926 ft 391 kts 255°
2026-05-08 09:11 24.96891 42.91409 33142 ft 388 kts 255°
2026-05-08 09:12 24.96506 42.88487 33381 ft 385 kts 255°
2026-05-08 09:12 24.96127 42.85587 33622 ft 381 kts 255°
2026-05-08 09:12 24.95757 42.82716 33853 ft 377 kts 255°
2026-05-08 09:12 24.95394 42.79876 34032 ft 374 kts 255°
2026-05-08 09:13 24.94675 42.74205 34080 ft 375 kts 255°
2026-05-08 09:13 24.93958 42.68503 34080 ft 377 kts 255°
2026-05-08 09:14 24.93247 42.62774 34081 ft 379 kts 256°
2026-05-08 09:14 24.92539 42.57023 34076 ft 381 kts 255°
2026-05-08 09:15 24.91829 42.51226 34075 ft 383 kts 256°
2026-05-08 09:15 24.91120 42.45414 34073 ft 385 kts 256°
2026-05-08 09:16 24.90410 42.39575 34078 ft 387 kts 256°
2026-05-08 09:16 24.89694 42.33691 34082 ft 389 kts 255°
2026-05-08 09:17 24.88946 42.27772 34075 ft 394 kts 255°
2026-05-08 09:17 24.88189 42.21778 34077 ft 398 kts 255°
2026-05-08 09:18 24.87431 42.15724 34063 ft 403 kts 255°
2026-05-08 09:18 24.86664 42.09577 34065 ft 407 kts 255°
2026-05-08 09:19 24.85892 42.03364 34067 ft 412 kts 255°
2026-05-08 09:19 24.85111 41.97084 34069 ft 416 kts 256°
2026-05-08 09:20 24.84326 41.90766 34070 ft 418 kts 256°
2026-05-08 09:20 24.83541 41.84445 34075 ft 415 kts 256°
2026-05-08 09:21 24.82760 41.78170 34077 ft 413 kts 256°
2026-05-08 09:23 24.79982 41.56117 34091 ft 416 kts 256°
2026-05-08 09:23 24.79183 41.49829 34100 ft 416 kts 256°
2026-05-08 09:24 24.78377 41.43525 34104 ft 417 kts 256°
2026-05-08 09:24 24.77569 41.37230 34103 ft 416 kts 256°
2026-05-08 09:25 24.76745 41.30943 34098 ft 415 kts 255°
2026-05-08 09:25 24.75901 41.24666 34103 ft 416 kts 255°
2026-05-08 09:26 24.75065 41.18390 34102 ft 416 kts 256°
2026-05-08 09:26 24.74237 41.12126 34105 ft 415 kts 256°
2026-05-08 09:27 24.73407 41.05844 34100 ft 415 kts 256°
2026-05-08 09:27 24.72578 40.99567 34094 ft 415 kts 256°
2026-05-08 09:28 24.71744 40.93275 34088 ft 417 kts 256°
2026-05-08 09:28 24.70910 40.86993 34086 ft 416 kts 256°
2026-05-08 09:29 24.70069 40.80690 34078 ft 416 kts 256°
2026-05-08 09:29 24.69227 40.74404 34074 ft 415 kts 256°
2026-05-08 09:30 24.68381 40.68120 34069 ft 417 kts 256°
2026-05-08 09:30 24.67526 40.61796 34065 ft 419 kts 257°
2026-05-08 09:31 24.66668 40.55477 34061 ft 417 kts 257°
2026-05-08 09:31 24.65810 40.49184 34069 ft 417 kts 257°
2026-05-08 09:32 24.64946 40.42882 34068 ft 416 kts 257°
2026-05-08 09:32 24.64079 40.36587 34067 ft 417 kts 257°
2026-05-08 09:33 24.63197 40.30312 34070 ft 417 kts 256°
2026-05-08 09:33 24.62308 40.24025 34066 ft 417 kts 257°
2026-05-08 09:34 24.61429 40.17724 34072 ft 417 kts 257°
2026-05-08 09:34 24.60550 40.11424 34073 ft 417 kts 257°
2026-05-08 09:35 24.59668 40.05131 34073 ft 418 kts 257°
2026-05-08 09:35 24.58781 39.98831 34074 ft 418 kts 257°
2026-05-08 09:36 24.57888 39.92518 34059 ft 419 kts 257°
2026-05-08 09:36 24.56991 39.86199 34044 ft 418 kts 257°
2026-05-08 09:37 24.56507 39.79862 34035 ft 424 kts 270°
2026-05-08 09:37 24.57225 39.73375 34020 ft 428 kts 272°
2026-05-08 09:38 24.58044 39.66893 34029 ft 430 kts 273°
2026-05-08 09:38 24.58880 39.60398 34037 ft 430 kts 273°
2026-05-08 09:39 24.59847 39.53923 34037 ft 430 kts 277°
2026-05-08 09:39 24.61673 39.47629 34047 ft 438 kts 287°
2026-05-08 09:40 24.64283 39.41540 34040 ft 443 kts 290°
2026-05-08 09:40 24.67178 39.35541 34030 ft 445 kts 293°
2026-05-08 09:41 24.70259 39.29614 34016 ft 446 kts 294°
2026-05-08 09:41 24.73480 39.23768 33992 ft 449 kts 296°
2026-05-08 09:42 24.76891 39.17993 33989 ft 450 kts 298°
2026-05-08 09:42 24.80481 39.12342 33994 ft 449 kts 300°
2026-05-08 09:43 24.84169 39.06798 33996 ft 450 kts 300°
2026-05-08 09:43 24.87942 39.01299 33999 ft 450 kts 302°
2026-05-08 09:44 24.91807 38.95883 33985 ft 449 kts 303°
2026-05-08 09:44 24.95732 38.90526 34020 ft 450 kts 304°
2026-05-08 09:45 24.99729 38.85205 34037 ft 451 kts 304°
2026-05-08 09:45 25.03784 38.79932 34067 ft 451 kts 306°
2026-05-08 09:46 25.07863 38.74691 34064 ft 448 kts 306°
2026-05-08 09:46 25.12050 38.69576 34058 ft 451 kts 309°
2026-05-08 09:47 25.16487 38.64663 34028 ft 452 kts 311°
2026-05-08 09:47 25.20952 38.59802 33989 ft 450 kts 313°
2026-05-08 09:48 25.25545 38.55108 33973 ft 451 kts 314°
2026-05-08 09:48 25.30160 38.50422 33956 ft 449 kts 314°
2026-05-08 09:49 25.34852 38.45841 33985 ft 450 kts 316°
2026-05-08 09:49 25.39587 38.41332 33971 ft 446 kts 317°
2026-05-08 09:50 25.44317 38.36903 33967 ft 446 kts 317°
2026-05-08 09:50 25.49082 38.32485 33966 ft 447 kts 317°
2026-05-08 09:51 25.53893 38.28112 33979 ft 447 kts 318°
2026-05-08 09:51 25.58713 38.23765 33978 ft 444 kts 319°
2026-05-08 09:52 25.63518 38.19486 33948 ft 441 kts 319°
2026-05-08 09:52 25.68309 38.15260 33955 ft 440 kts 320°
2026-05-08 09:53 25.73147 38.11058 33959 ft 442 kts 320°
2026-05-08 09:53 25.78020 38.06869 33952 ft 442 kts 321°
2026-05-08 09:54 25.82894 38.02693 33968 ft 442 kts 322°
2026-05-08 09:54 25.87775 37.98553 33954 ft 439 kts 322°
2026-05-08 09:55 25.92640 37.94460 33979 ft 439 kts 322°
2026-05-08 09:55 25.97522 37.90364 33993 ft 437 kts 322°
2026-05-08 09:56 26.02399 37.86294 34004 ft 436 kts 323°
2026-05-08 09:56 26.07258 37.82247 34024 ft 435 kts 323°
2026-05-08 09:57 26.14524 37.76208 34026 ft 434 kts 323°
2026-05-08 09:57 26.19348 37.72189 34043 ft 433 kts 323°
2026-05-08 09:58 26.24177 37.68197 34038 ft 432 kts 323°
2026-05-08 09:58 26.29002 37.64220 34057 ft 432 kts 323°
2026-05-08 09:59 26.33840 37.60225 34065 ft 432 kts 323°
2026-05-08 09:59 26.38695 37.56238 34073 ft 432 kts 323°
2026-05-08 10:00 26.43522 37.52264 34087 ft 431 kts 323°
2026-05-08 10:00 26.48344 37.48285 34083 ft 429 kts 323°
2026-05-08 10:01 26.53146 37.44322 34082 ft 426 kts 323°
2026-05-08 10:01 26.57910 37.40396 34097 ft 425 kts 323°
2026-05-08 10:02 26.62697 37.36448 34091 ft 425 kts 324°
2026-05-08 10:02 26.67441 37.32513 34091 ft 424 kts 323°
2026-05-08 10:03 26.72162 37.28555 34090 ft 424 kts 323°
2026-05-08 10:03 26.76869 37.24601 34073 ft 422 kts 323°
2026-05-08 10:04 26.81565 37.20674 34072 ft 421 kts 323°
2026-05-08 10:04 26.86271 37.16738 34065 ft 422 kts 324°
2026-05-08 10:05 26.90976 37.12815 34065 ft 420 kts 323°
2026-05-08 10:05 26.95640 37.08918 34067 ft 416 kts 323°
2026-05-08 10:06 27.00277 37.05045 34065 ft 415 kts 324°
2026-05-08 10:06 27.04910 37.01175 34077 ft 416 kts 324°
2026-05-08 10:07 27.09565 36.97287 34093 ft 417 kts 324°
2026-05-08 10:07 27.14223 36.93389 34094 ft 416 kts 324°
2026-05-08 10:08 27.18847 36.89512 34118 ft 414 kts 323°
2026-05-08 10:08 27.23480 36.85627 34119 ft 416 kts 324°
2026-05-08 10:09 27.28115 36.81735 34151 ft 414 kts 324°
2026-05-08 10:09 27.32728 36.77860 34161 ft 414 kts 324°
2026-05-08 10:10 27.37344 36.73980 34172 ft 414 kts 324°
2026-05-08 10:10 27.41975 36.70084 34160 ft 413 kts 324°
2026-05-08 10:11 27.46562 36.66220 34150 ft 410 kts 324°
2026-05-08 10:11 27.51136 36.62359 34127 ft 410 kts 324°
2026-05-08 10:12 27.55713 36.58494 34110 ft 410 kts 324°
2026-05-08 10:12 27.60273 36.54638 34108 ft 409 kts 324°
2026-05-08 10:13 27.64823 36.50785 34109 ft 407 kts 324°
2026-05-08 10:13 27.69357 36.46939 34138 ft 408 kts 324°
2026-05-08 10:14 27.73907 36.43076 34153 ft 411 kts 324°
2026-05-08 10:14 27.78470 36.39197 34164 ft 408 kts 324°
2026-05-08 10:15 27.83006 36.35338 34149 ft 407 kts 324°
2026-05-08 10:15 27.87511 36.31466 34155 ft 407 kts 324°
2026-05-08 10:16 27.92008 36.27583 34152 ft 407 kts 324°
2026-05-08 10:16 27.96505 36.23708 34150 ft 407 kts 324°